Home > Weather > Fort Nelson > Past weeks

Flag for Canada Past Weather in Fort Nelson, British Columbia, Canada — Yesterday and Last 2 Weeks

Now
64 °F

Light rain. Mostly cloudy.


Feels Like: 64 °F
Forecast: 46 / 55 °F
Wind: 10 mph from North

Location: Fort Nelson

Current Time: Aug 26, 2016 at 6:33:11 PM

Latest Report: Aug 26, 2016 at 6:00 PM


Visibility: 5 mi

Pressure: 29.61 "Hg

Humidity: 83%

Dew Point: 59 °F

Location of Fort NelsonLocation

Past Weather in Fort Nelson — Graph

°F

Fort Nelson Temperature Yesterday

Maximum temperature yesterday: 81 °F (at 4:00 PM)
Minimum temperature yesterday: 50 °F (at 5:00 AM)
Average temperature yesterday: 64 °F

High & Low Weather Summary for the Past Weeks

 TemperatureHumidityPressure
High82 °F (Aug 15, 5:00 PM)100% (Aug 22, 1:00 AM)30.32 "Hg (Aug 22, 1:00 AM)
Low45 °F (Aug 22, 6:00 AM)24% (Aug 25, 4:00 PM)29.60 "Hg (Aug 26, 5:00 PM)
Average65 °F62%30.00 "Hg
* Reported Aug 11 5:00 PM — Aug 26 5:00 PM, Fort Nelson, Weather by CustomWeather, © 2016

Note: Actual official high and low records may vary slightly from our data, if they occured in-between our weather recording intervals... More about our weather records

Advertising

Fort Nelson Weather History for the Previous 24 Hours

Scroll right to see more
 ConditionsComfort  
Time TempWeatherWind HumidityBarometerVisibility
5:00 PM
Fri, Aug 26
66 °FLight rain. Overcast.2 mph73%29.60 "Hg15 mi
4:00 PM66 °FMostly cloudy.No wind68%29.62 "Hg15 mi
3:00 PM64 °FMostly cloudy.5 mph83%29.63 "Hg20 mi
2:00 PM64 °FMostly cloudy.3 mph83%29.66 "Hg10 mi
1:46 PM64 °FMostly cloudy.3 mph78%29.66 "Hg10 mi
1:00 PM63 °FLight rain. More clouds than sun.3 mph88%29.68 "Hg8 mi
12:00 PM61 °FLight rain. Cloudy.5 mph94%29.70 "Hg5 mi
11:00 AM61 °FLight rain. Cloudy.2 mph88%29.72 "Hg5 mi
10:00 AM59 °FLight rain. More clouds than sun.No wind94%29.74 "Hg5 mi
9:00 AM57 °FLight rain. Mostly cloudy.7 mph100%29.77 "Hg7 mi
8:00 AM59 °FLight rain. More clouds than sun.No wind88%29.80 "Hg10 mi
7:00 AM59 °FMore clouds than sun.7 mph88%29.81 "Hg10 mi
6:00 AM59 °FMostly cloudy.6 mph88%29.81 "Hg20 mi
5:53 AM59 °FMostly cloudy.5 mph88%29.81 "Hg15 mi
5:00 AM59 °FMostly cloudy.3 mph82%29.83 "Hg15 mi
4:00 AM61 °FPartly cloudy.6 mph77%29.84 "Hg15 mi
3:00 AM61 °FPartly cloudy.No wind77%29.87 "Hg15 mi
2:00 AM63 °FPartly cloudy.No wind73%29.91 "Hg15 mi
1:00 AM64 °FPartly cloudy.7 mph60%29.93 "Hg15 mi
12:00 AM63 °FPartly cloudy.3 mph68%29.95 "Hg15 mi
11:00 PM
Thu, Aug 25
61 °FPartly cloudy.5 mph72%29.98 "Hg15 mi
10:00 PM61 °FPartly cloudy.5 mph72%30.01 "Hg15 mi
9:00 PM64 °FOvercast.2 mph68%30.03 "Hg30 mi
8:00 PM70 °FOvercast.No wind57%30.05 "Hg30 mi
7:00 PM77 °FPartly sunny.5 mph32%30.06 "Hg30 mi
6:00 PM79 °FScattered clouds.6 mph28%30.09 "Hg30 mi
Weather by CustomWeather, © 2016

See weather overviewHow to use our weather pages